Location: Jablonec nad Nisou
(50.7170°N, 15.1830°E)
Time: 20:12:52
(UTC+02:00)

ISS - Pass Details

Date: 31 March 2019
Orbit: 408 x 410 km, 51.6° (Epoch: 26 April)

Event Time Altitude Azimuth Distance (km) Brightness Sun altitude
Rises 22:36:01 0° 285° (WNW) 2,338 0.9 -26.6°
Reaches altitude 10° 22:38:13 10° 276° (W) 1,474 -0.4 -26.8°
Enters shadow 22:38:49 14° 270° (W) 1,262 -0.9 -26.9°
